Time,TemperatureF,DewpointF,PressureIn,WindDirection,WindDirectionDegrees,WindSpeedMPH,WindSpeedGustMPH,Humidity,HourlyPrecipIn,Conditions,Clouds,dailyrainin,SoftwareType,DateUTC
2013-03-16 00:00:00,58.1,52.0,29.95,West,264,10.0,10.0,80,0.00,,,0.00,Wunderground v.1.15,2013-03-16 04:00:00,
2013-03-16 00:02:00,58.1,52.0,29.95,SW,224,10.0,14.0,80,0.00,,,0.00,Wunderground v.1.15,2013-03-16 04:02:00,
2013-03-16 00:08:00,58.3,52.2,29.95,SW,223,9.0,14.0,80,0.00,,,0.00,Wunderground v.1.15,2013-03-16 04:08:00,
2013-03-16 00:10:00,58.3,52.2,29.95,WSW,241,9.0,11.0,80,0.00,,,0.00,Wunderground v.1.15,2013-03-16 04:10:00,
2013-03-16 00:16:00,58.4,52.3,29.95,SW,222,10.0,11.0,80,0.00,,,0.00,Wunderground v.1.15,2013-03-16 04:16:00,
2013-03-16 00:22:00,58.3,52.2,29.95,SW,232,10.0,14.0,80,0.00,,,0.00,Wunderground v.1.15,2013-03-16 04:22:00,
2013-03-16 00:28:00,58.3,52.2,29.95,WSW,246,12.0,21.0,80,0.00,,,0.00,Wunderground v.1.15,2013-03-16 04:28:00,
2013-03-16 00:30:00,58.3,52.2,29.94,SW,232,12.0,18.0,80,0.00,,,0.00,Wunderground v.1.15,2013-03-16 04:30:00,
2013-03-16 00:36:00,58.1,52.3,29.94,SSW,208,10.0,19.0,81,0.00,,,0.00,Wunderground v.1.15,2013-03-16 04:36:00,
2013-03-16 00:42:00,58.1,52.6,29.94,WSW,247,9.0,14.0,82,0.00,,,0.00,Wunderground v.1.15,2013-03-16 04:42:00,
2013-03-16 00:48:00,58.0,52.9,29.94,WSW,251,10.0,14.0,83,0.00,,,0.00,Wunderground v.1.15,2013-03-16 04:48:00,
2013-03-16 00:54:00,58.0,53.2,29.94,SW,215,10.0,16.0,84,0.00,,,0.00,Wunderground v.1.15,2013-03-16 04:54:00,
2013-03-16 01:00:00,58.0,53.2,29.93,SW,229,12.0,12.0,84,0.00,,,0.00,Wunderground v.1.15,2013-03-16 05:00:00,
2013-03-16 01:08:00,57.8,53.3,29.93,SW,223,11.0,14.0,85,0.00,,,0.00,Wunderground v.1.15,2013-03-16 05:08:00,
2013-03-16 01:14:00,57.6,53.4,29.93,WSW,243,10.0,12.0,86,0.00,,,0.00,Wunderground v.1.15,2013-03-16 05:14:00,
2013-03-16 01:20:00,57.6,53.4,29.93,SW,233,10.0,16.0,86,0.00,,,0.00,Wunderground v.1.15,2013-03-16 05:20:00,
2013-03-16 01:28:00,57.5,53.3,29.93,SW,216,12.0,18.0,86,0.00,,,0.00,Wunderground v.1.15,2013-03-16 05:28:00,
2013-03-16 01:34:00,57.5,53.7,29.93,WSW,250,10.0,16.0,87,0.00,,,0.00,Wunderground v.1.15,2013-03-16 05:34:00,
2013-03-16 01:40:00,57.6,53.8,29.93,SW,230,10.0,13.0,87,0.00,,,0.00,Wunderground v.1.15,2013-03-16 05:40:00,
2013-03-16 01:46:00,57.6,53.8,29.93,WSW,253,11.0,13.0,87,0.00,,,0.00,Wunderground v.1.15,2013-03-16 05:46:00,
2013-03-16 01:52:00,57.6,53.8,29.93,West,264,10.0,17.0,87,0.00,,,0.00,Wunderground v.1.15,2013-03-16 05:52:00,
2013-03-16 01:58:00,57.6,53.8,29.93,West,260,10.0,17.0,87,0.00,,,0.00,Wunderground v.1.15,2013-03-16 05:58:00,
2013-03-16 02:04:00,57.6,54.1,29.92,SSW,208,10.0,10.0,88,0.00,,,0.00,Wunderground v.1.15,2013-03-16 06:04:00,
2013-03-16 02:10:00,57.6,54.1,29.92,WSW,239,11.0,14.0,88,0.00,,,0.00,Wunderground v.1.15,2013-03-16 06:10:00,
2013-03-16 02:16:00,57.6,54.1,29.92,WSW,250,11.0,14.0,88,0.00,,,0.00,Wunderground v.1.15,2013-03-16 06:16:00,
2013-03-16 02:22:00,57.6,54.1,29.92,SW,232,9.0,10.0,88,0.00,,,0.00,Wunderground v.1.15,2013-03-16 06:22:00,
2013-03-16 02:28:00,57.6,54.1,29.92,West,261,9.0,19.0,88,0.00,,,0.00,Wunderground v.1.15,2013-03-16 06:28:00,
2013-03-16 02:34:00,57.5,54.0,29.92,WSW,258,9.0,18.0,88,0.00,,,0.00,Wunderground v.1.15,2013-03-16 06:34:00,
2013-03-16 02:40:00,57.5,54.0,29.92,WSW,251,9.0,11.0,88,0.00,,,0.00,Wunderground v.1.15,2013-03-16 06:40:00,
2013-03-16 02:46:00,57.3,54.1,29.92,SW,216,9.0,14.0,89,0.00,,,0.00,Wunderground v.1.15,2013-03-16 06:46:00,
2013-03-16 02:52:00,57.3,53.8,29.92,WSW,256,6.0,8.0,88,0.00,,,0.00,Wunderground v.1.15,2013-03-16 06:52:00,
2013-03-16 02:58:00,57.2,53.7,29.92,SW,223,7.0,8.0,88,0.00,,,0.00,Wunderground v.1.15,2013-03-16 06:58:00,
2013-03-16 03:04:00,57.2,53.7,29.91,WSW,247,6.0,11.0,88,0.00,,,0.00,Wunderground v.1.15,2013-03-16 07:04:00,
2013-03-16 03:10:00,57.0,53.2,29.91,WSW,244,6.0,6.0,87,0.00,,,0.00,Wunderground v.1.15,2013-03-16 07:10:00,
2013-03-16 03:16:00,57.0,52.9,29.91,WSW,239,4.0,6.0,86,0.00,,,0.00,Wunderground v.1.15,2013-03-16 07:16:00,
2013-03-16 03:22:00,57.2,52.7,29.91,West,277,4.0,4.0,85,0.00,,,0.00,Wunderground v.1.15,2013-03-16 07:22:00,
2013-03-16 03:28:00,57.2,52.4,29.91,West,261,5.0,7.0,84,0.00,,,0.00,Wunderground v.1.15,2013-03-16 07:28:00,
2013-03-16 03:34:00,57.5,52.0,29.90,West,260,5.0,8.0,82,0.00,,,0.00,Wunderground v.1.15,2013-03-16 07:34:00,
2013-03-16 03:40:00,57.6,51.5,29.90,WSW,254,5.0,5.0,80,0.00,,,0.00,Wunderground v.1.15,2013-03-16 07:40:00,
2013-03-16 03:46:00,57.5,51.4,29.90,WSW,246,5.0,6.0,80,0.00,,,0.00,Wunderground v.1.15,2013-03-16 07:46:00,
2013-03-16 03:52:00,57.3,51.2,29.90,West,267,5.0,7.0,80,0.00,,,0.00,Wunderground v.1.15,2013-03-16 07:52:00,
2013-03-16 03:58:00,57.2,51.1,29.90,WSW,240,5.0,8.0,80,0.00,,,0.00,Wunderground v.1.15,2013-03-16 07:58:00,
2013-03-16 04:04:00,57.2,50.7,29.90,WSW,241,4.0,6.0,79,0.00,,,0.00,Wunderground v.1.15,2013-03-16 08:04:00,
2013-03-16 04:10:00,57.2,50.1,29.90,WNW,285,4.0,4.0,77,0.00,,,0.00,Wunderground v.1.15,2013-03-16 08:10:00,
2013-03-16 04:16:00,57.5,49.6,29.90,West,275,5.0,14.0,75,0.00,,,0.00,Wunderground v.1.15,2013-03-16 08:16:00,
2013-03-16 04:22:00,57.3,49.4,29.90,West,275,5.0,5.0,75,0.00,,,0.00,Wunderground v.1.15,2013-03-16 08:22:00,
2013-03-16 04:28:00,57.3,49.1,29.90,West,270,4.0,6.0,74,0.00,,,0.00,Wunderground v.1.15,2013-03-16 08:28:00,
2013-03-16 04:34:00,57.3,48.7,29.90,West,278,4.0,6.0,73,0.00,,,0.00,Wunderground v.1.15,2013-03-16 08:34:00,
2013-03-16 04:40:00,57.5,48.5,29.90,WNW,296,5.0,5.0,72,0.00,,,0.00,Wunderground v.1.15,2013-03-16 08:40:00,
2013-03-16 04:46:00,57.5,48.2,29.90,WNW,301,6.0,6.0,71,0.00,,,0.00,Wunderground v.1.15,2013-03-16 08:46:00,
2013-03-16 04:52:00,57.3,48.0,29.90,WSW,257,5.0,8.0,71,0.00,,,0.00,Wunderground v.1.15,2013-03-16 08:52:00,
2013-03-16 04:58:00,57.3,47.6,29.90,West,272,4.0,12.0,70,0.00,,,0.00,Wunderground v.1.15,2013-03-16 08:58:00,
2013-03-16 05:04:00,57.3,47.2,29.89,WNW,298,5.0,12.0,69,0.00,,,0.00,Wunderground v.1.15,2013-03-16 09:04:00,
2013-03-16 05:10:00,57.5,47.4,29.89,NW,309,6.0,6.0,69,0.00,,,0.00,Wunderground v.1.15,2013-03-16 09:10:00,
2013-03-16 05:16:00,57.5,47.4,29.89,WSW,258,7.0,7.0,69,0.00,,,0.00,Wunderground v.1.15,2013-03-16 09:16:00,
2013-03-16 05:22:00,57.3,46.8,29.89,West,281,6.0,6.0,68,0.00,,,0.00,Wunderground v.1.15,2013-03-16 09:22:00,
2013-03-16 05:28:00,57.3,47.2,29.89,West,268,7.0,7.0,69,0.00,,,0.00,Wunderground v.1.15,2013-03-16 09:28:00,
2013-03-16 05:34:00,57.5,47.0,29.89,West,268,6.0,27.0,68,0.00,,,0.00,Wunderground v.1.15,2013-03-16 09:34:00,
2013-03-16 05:40:00,57.5,46.6,29.89,WNW,284,8.0,8.0,67,0.00,,,0.00,Wunderground v.1.15,2013-03-16 09:40:00,
2013-03-16 05:46:00,57.6,46.7,29.90,WNW,284,7.0,16.0,67,0.00,,,0.00,Wunderground v.1.15,2013-03-16 09:46:00,
2013-03-16 05:52:00,57.5,46.6,29.90,West,261,8.0,11.0,67,0.00,,,0.00,Wunderground v.1.15,2013-03-16 09:52:00,
2013-03-16 05:58:00,57.5,46.6,29.90,WNW,298,7.0,11.0,67,0.00,,,0.00,Wunderground v.1.15,2013-03-16 09:58:00,
2013-03-16 06:04:00,57.2,46.7,29.90,WNW,289,7.0,11.0,68,0.00,,,0.00,Wunderground v.1.15,2013-03-16 10:04:00,
2013-03-16 06:10:00,57.3,46.4,29.90,West,264,7.0,7.0,67,0.00,,,0.00,Wunderground v.1.15,2013-03-16 10:10:00,
2013-03-16 06:18:00,57.2,46.3,29.91,WNW,288,6.0,10.0,67,0.00,,,0.00,Wunderground v.1.15,2013-03-16 10:18:00,
2013-03-16 06:24:00,57.0,46.5,29.91,West,281,6.0,8.0,68,0.00,,,0.00,Wunderground v.1.15,2013-03-16 10:24:00,
2013-03-16 06:30:00,57.0,46.1,29.91,West,263,6.0,6.0,67,0.00,,,0.00,Wunderground v.1.15,2013-03-16 10:30:00,
2013-03-16 06:36:00,57.0,46.1,29.91,West,278,7.0,10.0,67,0.00,,,0.00,Wunderground v.1.15,2013-03-16 10:36:00,
2013-03-16 06:42:00,56.9,46.1,29.91,West,280,7.0,7.0,67,0.00,,,0.00,Wunderground v.1.15,2013-03-16 10:42:00,
2013-03-16 06:48:00,56.9,46.1,29.91,WNW,292,6.0,11.0,67,0.00,,,0.00,Wunderground v.1.15,2013-03-16 10:48:00,
2013-03-16 06:54:00,56.7,45.9,29.91,West,281,6.0,13.0,67,0.00,,,0.00,Wunderground v.1.15,2013-03-16 10:54:00,
2013-03-16 07:00:00,56.6,46.2,29.91,West,278,6.0,7.0,68,0.00,,,0.00,Wunderground v.1.15,2013-03-16 11:00:00,
2013-03-16 07:08:00,56.6,45.8,29.91,West,281,6.0,16.0,67,0.00,,,0.00,Wunderground v.1.15,2013-03-16 11:08:00,
2013-03-16 07:14:00,56.5,45.7,29.91,WNW,294,7.0,8.0,67,0.00,,,0.00,Wunderground v.1.15,2013-03-16 11:14:00,
2013-03-16 07:20:00,56.5,46.1,29.91,WNW,284,6.0,8.0,68,0.00,,,0.00,Wunderground v.1.15,2013-03-16 11:20:00,
2013-03-16 07:26:00,56.6,45.8,29.91,WNW,285,6.0,8.0,67,0.00,,,0.00,Wunderground v.1.15,2013-03-16 11:26:00,
2013-03-16 07:32:00,56.5,46.1,29.91,West,271,7.0,7.0,68,0.00,,,0.00,Wunderground v.1.15,2013-03-16 11:32:00,
2013-03-16 07:38:00,56.5,46.1,29.91,West,278,7.0,13.0,68,0.00,,,0.00,Wunderground v.1.15,2013-03-16 11:38:00,
2013-03-16 07:44:00,56.3,45.9,29.91,West,268,7.0,14.0,68,0.00,,,0.00,Wunderground v.1.15,2013-03-16 11:44:00,
2013-03-16 07:50:00,56.5,45.7,29.91,WNW,292,7.0,7.0,67,0.00,,,0.00,Wunderground v.1.15,2013-03-16 11:50:00,
2013-03-16 07:56:00,56.3,45.9,29.91,West,278,6.0,7.0,68,0.00,,,0.00,Wunderground v.1.15,2013-03-16 11:56:00,
2013-03-16 08:02:00,56.5,46.1,29.91,West,268,5.0,5.0,68,0.00,,,0.00,Wunderground v.1.15,2013-03-16 12:02:00,
2013-03-16 08:08:00,56.3,45.9,29.91,WNW,296,4.0,6.0,68,0.00,,,0.00,Wunderground v.1.15,2013-03-16 12:08:00,
2013-03-16 08:14:00,56.5,46.1,29.92,WNW,285,6.0,13.0,68,0.00,,,0.00,Wunderground v.1.15,2013-03-16 12:14:00,
2013-03-16 08:20:00,56.5,46.1,29.92,WNW,289,7.0,7.0,68,0.00,,,0.00,Wunderground v.1.15,2013-03-16 12:20:00,
2013-03-16 08:26:00,56.6,45.8,29.92,NW,305,6.0,12.0,67,0.00,,,0.00,Wunderground v.1.15,2013-03-16 12:26:00,
2013-03-16 08:32:00,56.9,46.1,29.92,WNW,284,6.0,6.0,67,0.00,,,0.00,Wunderground v.1.15,2013-03-16 12:32:00,
2013-03-16 08:38:00,57.0,45.7,29.92,WSW,258,5.0,8.0,66,0.00,,,0.00,Wunderground v.1.15,2013-03-16 12:38:00,
2013-03-16 08:44:00,57.3,46.0,29.92,WNW,296,4.0,6.0,66,0.00,,,0.00,Wunderground v.1.15,2013-03-16 12:44:00,
2013-03-16 08:50:00,57.5,46.2,29.92,WSW,258,5.0,5.0,66,0.00,,,0.00,Wunderground v.1.15,2013-03-16 12:50:00,
2013-03-16 08:56:00,57.6,46.3,29.92,SW,216,5.0,5.0,66,0.00,,,0.00,Wunderground v.1.15,2013-03-16 12:56:00,
2013-03-16 09:02:00,58.1,46.0,29.92,WNW,284,6.0,12.0,64,0.00,,,0.00,Wunderground v.1.15,2013-03-16 13:02:00,
2013-03-16 09:08:00,58.4,46.3,29.92,WNW,289,8.0,12.0,64,0.00,,,0.00,Wunderground v.1.15,2013-03-16 13:08:00,
2013-03-16 09:14:00,58.7,46.5,29.92,WSW,240,7.0,8.0,64,0.00,,,0.00,Wunderground v.1.15,2013-03-16 13:14:00,
2013-03-16 09:20:00,58.9,46.7,29.92,West,275,8.0,8.0,64,0.00,,,0.00,Wunderground v.1.15,2013-03-16 13:20:00,
2013-03-16 09:28:00,59.2,47.0,29.92,WNW,298,7.0,10.0,64,0.00,,,0.00,Wunderground v.1.15,2013-03-16 13:28:00,
2013-03-16 09:34:00,59.6,47.0,29.93,NW,312,7.0,10.0,63,0.00,,,0.00,Wunderground v.1.15,2013-03-16 13:34:00,
2013-03-16 09:40:00,59.9,46.8,29.93,NW,306,9.0,14.0,62,0.00,,,0.00,Wunderground v.1.15,2013-03-16 13:40:00,
2013-03-16 09:48:00,60.5,47.4,29.92,WNW,285,10.0,14.0,62,0.00,,,0.00,Wunderground v.1.15,2013-03-16 13:48:00,
2013-03-16 09:54:00,60.9,47.4,29.92,West,263,11.0,17.0,61,0.00,,,0.00,Wunderground v.1.15,2013-03-16 13:54:00,
2013-03-16 10:00:00,61.0,47.9,29.93,WNW,299,13.0,13.0,62,0.00,,,0.00,Wunderground v.1.15,2013-03-16 14:00:00,
2013-03-16 10:08:00,61.8,48.2,29.93,WNW,287,9.0,13.0,61,0.00,,,0.00,Wunderground v.1.15,2013-03-16 14:08:00,
2013-03-16 10:14:00,62.3,48.2,29.92,WNW,295,9.0,12.0,60,0.00,,,0.00,Wunderground v.1.15,2013-03-16 14:14:00,
2013-03-16 10:20:00,62.9,48.8,29.92,WNW,302,8.0,8.0,60,0.00,,,0.00,Wunderground v.1.15,2013-03-16 14:20:00,
2013-03-16 10:28:00,63.4,48.8,29.92,West,267,7.0,10.0,59,0.00,,,0.00,Wunderground v.1.15,2013-03-16 14:28:00,
2013-03-16 10:34:00,63.7,49.1,29.92,WNW,299,10.0,22.0,59,0.00,,,0.00,Wunderground v.1.15,2013-03-16 14:34:00,
2013-03-16 10:40:00,64.3,49.2,29.92,West,268,11.0,11.0,58,0.00,,,0.00,Wunderground v.1.15,2013-03-16 14:40:00,
2013-03-16 10:46:00,64.8,48.7,29.91,NW,304,10.0,11.0,56,0.00,,,0.00,Wunderground v.1.15,2013-03-16 14:46:00,
2013-03-16 10:52:00,65.3,49.7,29.91,WNW,295,11.0,11.0,57,0.00,,,0.00,Wunderground v.1.15,2013-03-16 14:52:00,
2013-03-16 10:58:00,65.8,49.7,29.91,WNW,288,10.0,12.0,56,0.00,,,0.00,Wunderground v.1.15,2013-03-16 14:58:00,
2013-03-16 11:04:00,66.4,49.7,29.91,WNW,287,8.0,12.0,55,0.00,,,0.00,Wunderground v.1.15,2013-03-16 15:04:00,
2013-03-16 11:10:00,66.9,49.2,29.91,West,281,7.0,11.0,53,0.00,,,0.00,Wunderground v.1.15,2013-03-16 15:10:00,
2013-03-16 11:16:00,67.1,49.9,29.91,WNW,282,10.0,11.0,54,0.00,,,0.00,Wunderground v.1.15,2013-03-16 15:16:00,
2013-03-16 11:22:00,67.8,49.5,29.91,WSW,239,10.0,12.0,52,0.00,,,0.00,Wunderground v.1.15,2013-03-16 15:22:00,
2013-03-16 11:28:00,67.9,49.6,29.91,WNW,284,10.0,14.0,52,0.00,,,0.00,Wunderground v.1.15,2013-03-16 15:28:00,
2013-03-16 11:34:00,68.6,49.7,29.90,NW,313,12.0,13.0,51,0.00,,,0.00,Wunderground v.1.15,2013-03-16 15:34:00,
2013-03-16 11:40:00,68.1,51.3,29.90,NW,305,13.0,13.0,55,0.00,,,0.00,Wunderground v.1.15,2013-03-16 15:40:00,
2013-03-16 11:46:00,68.9,50.5,29.89,West,281,12.0,15.0,52,0.00,,,0.00,Wunderground v.1.15,2013-03-16 15:46:00,
2013-03-16 11:52:00,69.4,50.5,29.89,WNW,284,9.0,10.0,51,0.00,,,0.00,Wunderground v.1.15,2013-03-16 15:52:00,
2013-03-16 11:58:00,69.6,51.2,29.89,NW,306,8.0,10.0,52,0.00,,,0.00,Wunderground v.1.15,2013-03-16 15:58:00,
2013-03-16 12:04:00,70.1,51.1,29.88,WNW,294,10.0,16.0,51,0.00,,,0.00,Wunderground v.1.15,2013-03-16 16:04:00,
2013-03-16 12:10:00,70.6,51.6,29.88,WNW,302,11.0,16.0,51,0.00,,,0.00,Wunderground v.1.15,2013-03-16 16:10:00,
2013-03-16 12:18:00,71.1,49.8,29.88,NW,306,12.0,17.0,47,0.00,,,0.00,Wunderground v.1.15,2013-03-16 16:18:00,
2013-03-16 12:24:00,71.3,50.6,29.88,WNW,299,10.0,15.0,48,0.00,,,0.00,Wunderground v.1.15,2013-03-16 16:24:00,
2013-03-16 12:30:00,71.6,51.4,29.88,WNW,299,10.0,12.0,49,0.00,,,0.00,Wunderground v.1.15,2013-03-16 16:30:00,
2013-03-16 12:38:00,71.5,51.3,29.88,WNW,302,12.0,18.0,49,0.00,,,0.00,Wunderground v.1.15,2013-03-16 16:38:00,
2013-03-16 12:44:00,71.5,51.9,29.87,WNW,294,12.0,20.0,50,0.00,,,0.00,Wunderground v.1.15,2013-03-16 16:44:00,
2013-03-16 12:50:00,72.1,50.8,29.87,WNW,291,12.0,17.0,47,0.00,,,0.00,Wunderground v.1.15,2013-03-16 16:50:00,
2013-03-16 12:56:00,72.1,51.3,29.87,WNW,291,12.0,18.0,48,0.00,,,0.00,Wunderground v.1.15,2013-03-16 16:56:00,
2013-03-16 13:02:00,72.5,50.5,29.87,WNW,295,11.0,13.0,46,0.00,,,0.00,Wunderground v.1.15,2013-03-16 17:02:00,
2013-03-16 13:08:00,73.0,51.0,29.87,WNW,291,9.0,13.0,46,0.00,,,0.00,Wunderground v.1.15,2013-03-16 17:08:00,
2013-03-16 13:14:00,73.0,51.0,29.86,WNW,301,11.0,17.0,46,0.00,,,0.00,Wunderground v.1.15,2013-03-16 17:14:00,
2013-03-16 13:20:00,73.3,50.1,29.86,WNW,296,12.0,20.0,44,0.00,,,0.00,Wunderground v.1.15,2013-03-16 17:20:00,
2013-03-16 13:28:00,72.8,49.6,29.86,West,280,14.0,20.0,44,0.00,,,0.00,Wunderground v.1.15,2013-03-16 17:28:00,
2013-03-16 13:34:00,73.5,49.6,29.85,NW,308,13.0,15.0,43,0.00,,,0.00,Wunderground v.1.15,2013-03-16 17:34:00,
2013-03-16 13:40:00,74.2,50.3,29.85,WNW,282,10.0,19.0,43,0.00,,,0.00,Wunderground v.1.15,2013-03-16 17:40:00,
2013-03-16 13:46:00,74.2,50.3,29.84,WNW,301,11.0,19.0,43,0.00,,,0.00,Wunderground v.1.15,2013-03-16 17:46:00,
2013-03-16 13:52:00,74.4,49.2,29.84,West,267,12.0,18.0,41,0.00,,,0.00,Wunderground v.1.15,2013-03-16 17:52:00,
2013-03-16 13:58:00,74.4,55.1,29.84,WSW,237,9.0,18.0,51,0.00,,,0.00,Wunderground v.1.15,2013-03-16 17:58:00,
2013-03-16 14:04:00,73.0,55.4,29.83,SSW,199,6.0,8.0,54,0.00,,,0.00,Wunderground v.1.15,2013-03-16 18:04:00,
2013-03-16 14:10:00,71.8,55.7,29.83,South,191,7.0,10.0,57,0.00,,,0.00,Wunderground v.1.15,2013-03-16 18:10:00,
2013-03-16 14:16:00,71.5,55.9,29.83,SSW,205,8.0,10.0,58,0.00,,,0.00,Wunderground v.1.15,2013-03-16 18:16:00,
2013-03-16 14:22:00,70.9,55.9,29.83,SSW,202,9.0,17.0,59,0.00,,,0.00,Wunderground v.1.15,2013-03-16 18:22:00,
2013-03-16 14:28:00,70.6,55.6,29.83,SSW,195,9.0,19.0,59,0.00,,,0.00,Wunderground v.1.15,2013-03-16 18:28:00,
2013-03-16 14:34:00,70.3,55.8,29.82,SW,220,11.0,17.0,60,0.00,,,0.00,Wunderground v.1.15,2013-03-16 18:34:00,
2013-03-16 14:40:00,69.9,55.8,29.82,SW,232,10.0,10.0,61,0.00,,,0.00,Wunderground v.1.15,2013-03-16 18:40:00,
2013-03-16 14:46:00,69.3,55.7,29.82,SW,222,11.0,15.0,62,0.00,,,0.00,Wunderground v.1.15,2013-03-16 18:46:00,
2013-03-16 14:52:00,69.1,56.0,29.82,SW,232,11.0,16.0,63,0.00,,,0.00,Wunderground v.1.15,2013-03-16 18:52:00,
2013-03-16 14:58:00,69.1,55.5,29.82,WSW,240,11.0,16.0,62,0.00,,,0.00,Wunderground v.1.15,2013-03-16 18:58:00,
2013-03-16 15:04:00,69.1,56.0,29.81,SSW,213,11.0,15.0,63,0.00,,,0.00,Wunderground v.1.15,2013-03-16 19:04:00,
2013-03-16 15:10:00,69.1,56.0,29.81,South,181,10.0,10.0,63,0.00,,,0.00,Wunderground v.1.15,2013-03-16 19:10:00,
2013-03-16 15:16:00,68.9,55.8,29.80,SW,215,9.0,13.0,63,0.00,,,0.00,Wunderground v.1.15,2013-03-16 19:16:00,
2013-03-16 15:22:00,69.8,55.3,29.80,SW,217,10.0,18.0,60,0.00,,,0.00,Wunderground v.1.15,2013-03-16 19:22:00,
2013-03-16 15:28:00,69.9,55.8,29.80,SW,232,10.0,18.0,61,0.00,,,0.00,Wunderground v.1.15,2013-03-16 19:28:00,
2013-03-16 15:34:00,70.3,56.7,29.80,SW,234,9.0,13.0,62,0.00,,,0.00,Wunderground v.1.15,2013-03-16 19:34:00,
2013-03-16 15:40:00,70.6,54.6,29.80,SSW,212,10.0,12.0,57,0.00,,,0.00,Wunderground v.1.15,2013-03-16 19:40:00,
2013-03-16 15:46:00,70.9,54.9,29.79,SW,227,10.0,12.0,57,0.00,,,0.00,Wunderground v.1.15,2013-03-16 19:46:00,
2013-03-16 15:52:00,70.6,55.6,29.79,South,169,10.0,12.0,59,0.00,,,0.00,Wunderground v.1.15,2013-03-16 19:52:00,
2013-03-16 15:58:00,69.8,55.7,29.79,WSW,246,12.0,14.0,61,0.00,,,0.00,Wunderground v.1.15,2013-03-16 19:58:00,
2013-03-16 16:04:00,69.8,55.7,29.79,SW,217,12.0,17.0,61,0.00,,,0.00,Wunderground v.1.15,2013-03-16 20:04:00,
2013-03-16 16:10:00,69.6,55.6,29.79,SSW,206,12.0,13.0,61,0.00,,,0.00,Wunderground v.1.15,2013-03-16 20:10:00,
2013-03-16 16:16:00,69.4,55.4,29.78,SSW,192,11.0,17.0,61,0.00,,,0.00,Wunderground v.1.15,2013-03-16 20:16:00,
2013-03-16 16:22:00,69.9,55.4,29.78,SSW,210,9.0,11.0,60,0.00,,,0.00,Wunderground v.1.15,2013-03-16 20:22:00,
2013-03-16 16:28:00,70.3,54.8,29.78,WSW,251,10.0,13.0,58,0.00,,,0.00,Wunderground v.1.15,2013-03-16 20:28:00,
2013-03-16 16:34:00,70.1,55.1,29.78,WSW,244,11.0,14.0,59,0.00,,,0.00,Wunderground v.1.15,2013-03-16 20:34:00,
2013-03-16 16:40:00,70.3,55.3,29.78,West,263,10.0,10.0,59,0.00,,,0.00,Wunderground v.1.15,2013-03-16 20:40:00,
2013-03-16 16:46:00,70.3,55.3,29.78,SW,217,10.0,17.0,59,0.00,,,0.00,Wunderground v.1.15,2013-03-16 20:46:00,
2013-03-16 16:52:00,69.9,54.9,29.78,South,189,11.0,12.0,59,0.00,,,0.00,Wunderground v.1.15,2013-03-16 20:52:00,
2013-03-16 16:58:00,69.1,54.6,29.78,WSW,239,12.0,18.0,60,0.00,,,0.00,Wunderground v.1.15,2013-03-16 20:58:00,
2013-03-16 17:04:00,69.3,55.3,29.78,SSW,213,12.0,21.0,61,0.00,,,0.00,Wunderground v.1.15,2013-03-16 21:04:00,
2013-03-16 17:10:00,69.4,55.4,29.78,SW,234,9.0,14.0,61,0.00,,,0.00,Wunderground v.1.15,2013-03-16 21:10:00,
2013-03-16 17:16:00,69.1,55.1,29.78,SW,227,9.0,14.0,61,0.00,,,0.00,Wunderground v.1.15,2013-03-16 21:16:00,
2013-03-16 17:22:00,69.1,55.1,29.78,West,278,10.0,16.0,61,0.00,,,0.00,Wunderground v.1.15,2013-03-16 21:22:00,
2013-03-16 17:28:00,69.4,54.9,29.78,SW,230,7.0,16.0,60,0.00,,,0.00,Wunderground v.1.15,2013-03-16 21:28:00,
2013-03-16 17:34:00,69.4,55.4,29.79,WSW,240,7.0,17.0,61,0.00,,,0.00,Wunderground v.1.15,2013-03-16 21:34:00,
2013-03-16 17:40:00,68.8,55.2,29.79,SSW,196,8.0,8.0,62,0.00,,,0.00,Wunderground v.1.15,2013-03-16 21:40:00,
2013-03-16 17:46:00,68.3,56.5,29.79,SW,217,9.0,9.0,66,0.00,,,0.00,Wunderground v.1.15,2013-03-16 21:46:00,
2013-03-16 17:52:00,67.4,56.1,29.79,SSW,206,8.0,8.0,67,0.00,,,0.00,Wunderground v.1.15,2013-03-16 21:52:00,
2013-03-16 17:58:00,67.3,56.4,29.79,SW,233,9.0,13.0,68,0.00,,,0.00,Wunderground v.1.15,2013-03-16 21:58:00,
2013-03-16 18:04:00,66.9,56.4,29.78,South,171,7.0,8.0,69,0.00,,,0.00,Wunderground v.1.15,2013-03-16 22:04:00,
2013-03-16 18:10:00,66.4,56.3,29.78,WSW,256,8.0,8.0,70,0.00,,,0.00,Wunderground v.1.15,2013-03-16 22:10:00,
2013-03-16 18:16:00,66.0,56.3,29.78,WSW,243,7.0,14.0,71,0.00,,,0.00,Wunderground v.1.15,2013-03-16 22:16:00,
2013-03-16 18:22:00,65.2,55.9,29.78,SW,219,10.0,10.0,72,0.00,,,0.00,Wunderground v.1.15,2013-03-16 22:22:00,
2013-03-16 18:28:00,65.0,55.8,29.78,SSW,213,10.0,12.0,72,0.00,,,0.00,Wunderground v.1.15,2013-03-16 22:28:00,
2013-03-16 18:34:00,64.8,55.9,29.78,SSW,208,9.0,11.0,73,0.00,,,0.00,Wunderground v.1.15,2013-03-16 22:34:00,
2013-03-16 18:40:00,64.5,55.7,29.78,SSW,199,10.0,10.0,73,0.00,,,0.00,Wunderground v.1.15,2013-03-16 22:40:00,
2013-03-16 18:48:00,64.2,55.7,29.78,SW,222,10.0,11.0,74,0.00,,,0.00,Wunderground v.1.15,2013-03-16 22:48:00,
2013-03-16 18:54:00,64.2,55.7,29.78,WSW,237,10.0,13.0,74,0.00,,,0.00,Wunderground v.1.15,2013-03-16 22:54:00,
2013-03-16 19:00:00,64.0,55.5,29.79,SW,232,9.0,12.0,74,0.00,,,0.00,Wunderground v.1.15,2013-03-16 23:00:00,
2013-03-16 19:06:00,64.0,55.2,29.79,WSW,246,8.0,12.0,73,0.00,,,0.00,Wunderground v.1.15,2013-03-16 23:06:00,
2013-03-16 19:12:00,63.9,55.1,29.79,SW,220,7.0,8.0,73,0.00,,,0.00,Wunderground v.1.15,2013-03-16 23:12:00,
2013-03-16 19:18:00,63.7,55.3,29.80,SSW,212,8.0,17.0,74,0.00,,,0.00,Wunderground v.1.15,2013-03-16 23:18:00,
2013-03-16 19:24:00,63.2,55.1,29.80,SW,219,9.0,12.0,75,0.00,,,0.00,Wunderground v.1.15,2013-03-16 23:24:00,
2013-03-16 19:30:00,63.1,55.0,29.80,SW,219,10.0,10.0,75,0.00,,,0.00,Wunderground v.1.15,2013-03-16 23:30:00,
2013-03-16 19:38:00,62.7,55.0,29.80,South,181,9.0,16.0,76,0.00,,,0.00,Wunderground v.1.15,2013-03-16 23:38:00,
2013-03-16 19:44:00,62.4,55.1,29.80,SSW,202,9.0,13.0,77,0.00,,,0.00,Wunderground v.1.15,2013-03-16 23:44:00,
2013-03-16 19:50:00,62.3,55.4,29.80,SW,216,9.0,9.0,78,0.00,,,0.00,Wunderground v.1.15,2013-03-16 23:50:00,
2013-03-16 19:56:00,62.1,55.5,29.80,SW,226,9.0,13.0,79,0.00,,,0.00,Wunderground v.1.15,2013-03-16 23:56:00,
2013-03-16 20:02:00,62.0,55.8,29.80,SW,217,9.0,12.0,80,0.00,,,0.00,Wunderground v.1.15,2013-03-17 00:02:00,
2013-03-16 20:08:00,61.8,55.6,29.80,SW,223,10.0,17.0,80,0.00,,,0.00,Wunderground v.1.15,2013-03-17 00:08:00,
2013-03-16 20:14:00,61.6,55.7,29.81,SW,219,9.0,16.0,81,0.00,,,0.00,Wunderground v.1.15,2013-03-17 00:14:00,
2013-03-16 20:20:00,61.5,56.0,29.81,SSW,205,9.0,10.0,82,0.00,,,0.00,Wunderground v.1.15,2013-03-17 00:20:00,
2013-03-16 20:26:00,61.3,56.1,29.81,SSW,202,9.0,12.0,83,0.00,,,0.00,Wunderground v.1.15,2013-03-17 00:26:00,
2013-03-16 20:32:00,61.2,56.0,29.81,SW,220,7.0,8.0,83,0.00,,,0.00,Wunderground v.1.15,2013-03-17 00:32:00,
2013-03-16 20:38:00,61.2,56.3,29.81,SW,223,7.0,16.0,84,0.00,,,0.00,Wunderground v.1.15,2013-03-17 00:38:00,
2013-03-16 20:44:00,61.2,56.3,29.82,SSW,210,7.0,11.0,84,0.00,,,0.00,Wunderground v.1.15,2013-03-17 00:44:00,
2013-03-16 20:50:00,61.2,56.3,29.82,SW,232,7.0,12.0,84,0.00,,,0.00,Wunderground v.1.15,2013-03-17 00:50:00,
2013-03-16 20:56:00,61.2,56.3,29.82,SW,222,7.0,12.0,84,0.00,,,0.00,Wunderground v.1.15,2013-03-17 00:56:00,
2013-03-16 21:02:00,61.2,56.3,29.82,WNW,285,8.0,10.0,84,0.00,,,0.00,Wunderground v.1.15,2013-03-17 01:02:00,
2013-03-16 21:08:00,61.2,56.3,29.82,SSW,213,8.0,12.0,84,0.00,,,0.00,Wunderground v.1.15,2013-03-17 01:08:00,
2013-03-16 21:14:00,61.0,56.5,29.82,West,260,8.0,16.0,85,0.00,,,0.00,Wunderground v.1.15,2013-03-17 01:14:00,
2013-03-16 21:20:00,61.0,56.5,29.82,SSW,208,8.0,12.0,85,0.00,,,0.00,Wunderground v.1.15,2013-03-17 01:20:00,
2013-03-16 21:28:00,61.0,56.5,29.82,SW,233,7.0,12.0,85,0.00,,,0.00,Wunderground v.1.15,2013-03-17 01:28:00,
2013-03-16 21:34:00,61.0,56.5,29.83,SSW,202,7.0,15.0,85,0.00,,,0.00,Wunderground v.1.15,2013-03-17 01:34:00,
2013-03-16 21:40:00,61.0,56.1,29.83,WSW,254,8.0,8.0,84,0.00,,,0.00,Wunderground v.1.15,2013-03-17 01:40:00,
2013-03-16 21:48:00,61.0,56.1,29.84,SW,224,8.0,13.0,84,0.00,,,0.00,Wunderground v.1.15,2013-03-17 01:48:00,
2013-03-16 21:54:00,61.0,56.1,29.84,SW,223,8.0,12.0,84,0.00,,,0.00,Wunderground v.1.15,2013-03-17 01:54:00,
2013-03-16 22:00:00,61.0,56.1,29.84,SW,216,8.0,8.0,84,0.00,,,0.00,Wunderground v.1.15,2013-03-17 02:00:00,
2013-03-16 22:06:00,61.0,56.1,29.84,West,277,7.0,11.0,84,0.00,,,0.00,Wunderground v.1.15,2013-03-17 02:06:00,
2013-03-16 22:12:00,61.2,56.0,29.84,SW,229,6.0,11.0,83,0.00,,,0.00,Wunderground v.1.15,2013-03-17 02:12:00,
2013-03-16 22:18:00,61.3,55.8,29.85,SW,220,6.0,11.0,82,0.00,,,0.00,Wunderground v.1.15,2013-03-17 02:18:00,
2013-03-16 22:24:00,61.3,55.4,29.85,WSW,250,5.0,7.0,81,0.00,,,0.00,Wunderground v.1.15,2013-03-17 02:24:00,
2013-03-16 22:30:00,61.5,55.6,29.85,WSW,256,5.0,5.0,81,0.00,,,0.00,Wunderground v.1.15,2013-03-17 02:30:00,
2013-03-16 22:36:00,61.3,55.4,29.85,SW,224,4.0,7.0,81,0.00,,,0.00,Wunderground v.1.15,2013-03-17 02:36:00,
2013-03-16 22:42:00,61.3,55.4,29.85,WSW,246,4.0,4.0,81,0.00,,,0.00,Wunderground v.1.15,2013-03-17 02:42:00,
2013-03-16 22:48:00,61.2,55.7,29.86,West,275,4.0,6.0,82,0.00,,,0.00,Wunderground v.1.15,2013-03-17 02:48:00,
2013-03-16 22:54:00,61.0,55.8,29.86,WSW,239,4.0,12.0,83,0.00,,,0.00,Wunderground v.1.15,2013-03-17 02:54:00,
2013-03-16 23:00:00,60.9,55.7,29.86,West,260,5.0,7.0,83,0.00,,,0.00,Wunderground v.1.15,2013-03-17 03:00:00,
2013-03-16 23:08:00,60.7,55.8,29.86,SSW,196,5.0,7.0,84,0.00,,,0.00,Wunderground v.1.15,2013-03-17 03:08:00,
2013-03-16 23:14:00,60.7,56.2,29.86,SW,226,5.0,8.0,85,0.00,,,0.00,Wunderground v.1.15,2013-03-17 03:14:00,
2013-03-16 23:20:00,60.5,56.3,29.86,SW,222,5.0,5.0,86,0.00,,,0.00,Wunderground v.1.15,2013-03-17 03:20:00,
2013-03-16 23:28:00,60.4,56.2,29.86,WSW,248,6.0,9.0,86,0.00,,,0.00,Wunderground v.1.15,2013-03-17 03:28:00,
2013-03-16 23:34:00,60.5,56.0,29.86,WSW,244,7.0,7.0,85,0.00,,,0.00,Wunderground v.1.15,2013-03-17 03:34:00,
2013-03-16 23:40:00,60.7,56.2,29.86,WSW,243,7.0,14.0,85,0.00,,,0.00,Wunderground v.1.15,2013-03-17 03:40:00,
2013-03-16 23:46:00,60.7,56.2,29.85,SSW,213,8.0,14.0,85,0.00,,,0.00,Wunderground v.1.15,2013-03-17 03:46:00,
2013-03-16 23:52:00,60.9,56.4,29.85,WSW,247,8.0,9.0,85,0.00,,,0.00,Wunderground v.1.15,2013-03-17 03:52:00,
2013-03-16 23:58:00,60.9,56.4,29.85,WSW,251,8.0,11.0,85,0.00,,,0.00,Wunderground v.1.15,2013-03-17 03:58:00,